CAPE
1061 1276 813 597 767 708 620 628 574 604 644 620 500 565 498 488 484 547 484 498 507 516 543 570 595 572 474 476 569 176 1065 1326 1334 1477 1575 1154 1214 1317 1266 1170 1092 859
831 734 748 796 989 784 783 805 625 598 700 504 430 457 437 514 589 512 549 543 456 426 401 561 660 586 478 434 489 328 739 1356 1396 937 1476 1471 1442 1488 1307 959 1141 1107
898 703 943 1338 1016 895 810 768 726 609 641 415 530 510 574 666 734 552 540 473 303 271 262 341 454 366 260 331 399 259 323 354 369 653 922 1299 1318 1499 1374 1324 926 1336
1129 1087 1171 1390 1239 835 777 775 646 582 565 611 588 622 602 679 808 544 470 258 198 131 164 345 333 214 114 182 235 215 232 235 291 378 515 597 970 1231 1444 1385 1268 926
1422 1382 1543 1611 1192 731 814 635 608 558 597 626 675 586 568 629 650 492 256 253 170 41 69 187 226 201 134 114 134 169 157 138 164 186 201 316 357 881 1268 1500 1136 1164
1575 1314 1451 1330 849 629 566 539 505 726 550 662 695 391 370 474 507 443 294 240 111 9 12 78 264 177 73 100 110 74 28 46 75 75 94 172 243 583 968 1067 1412 1297
1334 1298 1476 1166 627 389 599 492 504 482 519 561 606 501 354 384 437 403 333 231 72 0 0 28 153 104 79 76 53 6 13 10 1 2 12 49 112 156 261 1041 1053 1032
1264 1529 1331 979 563 552 468 466 457 481 555 546 558 593 458 373 469 290 254 178 36 0 0 3 134 85 50 16 4 5 12 5 2 0 0 29 113 62 88 65 314 994
1663 1523 1352 796 663 532 499 522 498 610 626 578 581 521 452 464 385 347 256 182 23 0 0 0 88 33 10 15 16 3 0 0 0 1 8 37 70 68 70 80 66 196
1438 1511 1242 938 666 462 503 698 661 639 565 483 482 426 395 382 322 284 202 138 14 0 0 0 46 11 0 0 0 0 0 0 0 5 4 6 20 41 70 102 96 156
1482 1770 1391 800 653 553 635 695 720 534 475 328 406 301 340 327 220 97 89 92 12 0 0 0 28 6 0 0 0 0 0 0 0 0 0 0 0 2 42 110 84 107
1178 1102 856 934 584 702 621 629 651 337 420 298 110 123 272 223 32 48 27 37 0 0 0 0 0 0 0 0 0 0 0 0 0 0 0 0 0 0 5 28 63 20
904 1273 999 950 769 619 660 664 674 552 389 316 98 110 140 53 34 62 27 9 0 0 0 0 0 0 0 0 0 0 0 0 0 0 0 0 0 0 3 6 10 10
1459 1498 1580 848 677 573 611 611 572 484 451 347 176 35 1 8 2 7 20 0 0 0 0 0 0 0 0 0 0 0 0 0 0 0 0 0 0 0 3 7 12 16
1105 1364 1497 1168 679 367 229 376 383 494 544 394 185 11 0 0 0 0 0 0 0 0 0 0 0 109 0 0 13 0 0 0 2 0 4 13 17 18 24 29 11 4
864 965 1204 1279 840 584 486 474 486 532 534 403 161 7 2 0 0 0 0 63 0 0 0 376 28 0 0 0 0 0 26 1 3 21 18 19 15 28 21 49 76 97
706 676 813 777 776 669 604 429 448 247 308 140 46 23 50 40 46 0 0 13 11 146 183 0 0 0 0 0 0 0 0 246 31 66 32 44 56 79 65 60 85 85
366 422 421 574 609 546 465 442 287 160 104 111 143 90 39 34 61 177 231 351 148 21 1 0 0 0 0 0 0 0 0 203 118 43 28 49 46 43 73 70 56 44
103 167 156 213 90 57 91 175 221 205 187 194 219 314 372 286 207 307 172 4 0 0 0 0 0 0 0 0 0 0 0 8 48 158 129 58 61 72 69 83 124 131
68 15 8 0 0 0 0 2 81 62 0 0 25 10 17 44 194 210 13 0 0 0 0 0 0 0 0 0 0 0 0 1 76 179 234 164 94 83 93 117 162 189
2 52 63 16 0 0 0 0 0 3 3 10 4 1 1 0 3 2 0 0 0 0 0 0 0 0 0 0 0 0 0 0 403 385 222 210 172 174 292 594 761 877
8 5 5 10 7 0 0 0 0 0 4 1 0 0 0 2 0 0 0 0 0 0 0 0 0 0 0 0 12 0 79 54 507 418 199 234 508 708 833 873 734 607
4 2 5 4 4 3 0 0 0 0 0 0 0 0 0 1 3 3 1 0 0 0 0 0 0 0 0 0 0 0 0 225 342 208 195 737 891 898 1095 1046 1055 1079
7 7 2 2 0 1 1 0 0 1 0 0 0 0 4 0 0 0 0 0 1 0 0 0 0 0 0 0 0 0 55 94 107 109 421 356 651 969 891 646 650 410
3 2 2 2 1 1 1 0 1 1 0 0 0 0 13 13 9 3 6 13 19 26 29 0 1 0 0 0 12 72 92 64 47 24 88 142 84 75 64 54 396 246
5 4 0 0 2 2 3 1 2 2 1 3 3 2 0 3 2 2 4 3 6 28 47 54 62 56 55 72 95 96 88 78 74 62 16 0 0 0 0 0 0 78
Wind_Speed
23 22 21 23 19 21 20 17 14 13 11 13 13 13 14 16 18 17 17 17 18 18 18 18 18 18 17 18 17 17 16 18 17 18 19 18 20 20 20 18 12 11
24 22 22 21 19 23 20 16 14 13 12 13 14 15 16 18 18 17 17 18 18 19 19 19 19 19 18 19 17 18 17 16 18 18 19 18 19 19 18 20 13 12
24 24 23 20 22 24 21 16 15 14 14 13 17 16 18 20 19 18 18 17 19 21 20 20 20 19 19 19 17 17 17 17 18 18 18 18 18 16 18 17 15 15
24 23 22 21 21 22 18 16 16 15 15 15 17 17 19 20 18 18 18 18 22 20 19 19 18 17 17 19 18 18 18 18 18 17 18 18 15 16 16 15 16 16
23 22 22 20 16 16 17 14 16 15 16 16 18 19 18 19 17 18 17 19 21 nan nan 17 17 18 18 17 18 18 17 18 17 17 17 17 15 15 15 15 16 15
22 22 23 19 16 15 15 13 15 17 17 18 18 17 17 17 17 18 19 19 19 nan nan nan 17 17 nan 18 18 nan nan nan nan nan nan 15 15 13 14 15 15 16
23 23 23 19 17 16 14 13 15 18 19 18 18 16 17 17 18 19 18 18 nan nan nan nan 18 17 nan nan nan nan nan nan nan nan nan nan 16 15 14 15 16 17
24 24 23 20 21 19 14 13 15 18 18 16 17 16 17 18 19 19 17 16 nan nan nan nan 18 nan nan nan nan nan nan nan nan nan nan nan 15 nan nan nan 15 17
24 24 22 22 22 21 14 14 15 18 17 15 16 16 16 17 19 18 17 16 nan nan nan nan nan nan nan nan nan nan nan nan nan nan nan nan nan nan nan nan nan 19
22 21 22 21 22 21 18 17 17 17 15 15 13 14 15 16 18 16 17 17 nan nan nan nan nan nan nan nan nan nan nan nan nan nan nan nan nan nan nan 19 nan 20
19 20 20 21 20 23 22 20 20 17 16 15 15 14 16 16 18 nan nan nan nan nan nan nan nan nan nan nan nan nan nan nan nan nan nan nan nan nan nan 22 nan 21
20 15 15 19 22 24 23 22 21 20 18 19 17 16 19 18 nan nan nan nan nan nan nan nan nan nan nan nan nan nan nan nan nan nan nan nan nan nan nan nan nan nan
22 16 20 23 25 24 23 22 23 23 21 20 nan 18 19 nan nan nan nan nan nan nan nan nan nan nan nan nan nan nan nan nan nan nan nan nan nan nan nan nan nan nan
24 23 25 25 24 25 23 22 22 23 21 20 20 nan nan nan nan nan nan nan nan nan nan nan nan nan nan nan nan nan nan nan nan nan nan nan nan nan nan nan nan nan
25 26 24 25 25 24 22 20 20 20 21 20 21 nan nan nan nan nan nan nan nan nan nan nan nan 28 nan nan nan nan nan nan nan nan nan nan nan nan nan nan nan nan
27 27 27 27 24 24 23 21 20 21 21 20 21 nan nan nan nan nan nan nan nan nan nan 30 nan nan nan nan nan nan nan nan nan nan nan nan nan nan nan nan nan nan
28 27 28 28 26 25 25 23 22 22 22 22 nan nan nan nan nan nan nan nan nan 29 33 nan nan nan nan nan nan nan nan 22 nan nan nan nan nan nan nan nan nan nan
28 27 26 28 26 26 27 30 28 28 28 29 29 nan nan nan nan 28 30 31 33 nan nan nan nan nan nan nan nan nan nan 25 23 nan nan nan nan nan nan nan nan nan
33 31 30 30 nan nan nan 31 33 32 32 33 34 32 30 29 29 31 33 nan nan nan nan nan nan nan nan nan nan nan nan nan nan 26 25 nan nan nan nan nan 23 22
nan nan nan nan nan nan nan nan nan nan nan nan nan nan nan nan 35 36 nan nan nan nan nan nan nan nan nan nan nan nan nan nan nan 25 25 25 nan nan nan 23 22 22
nan nan nan nan nan nan nan nan nan nan nan nan nan nan nan nan nan nan nan nan nan nan nan nan nan nan nan nan nan nan nan nan 28 26 24 24 23 22 22 23 24 24
nan nan nan nan nan nan nan nan nan nan nan nan nan nan nan nan nan nan nan nan nan nan nan nan nan nan nan nan nan nan nan nan 28 26 25 23 22 23 23 24 24 24
nan nan nan nan nan nan nan nan nan nan nan nan nan nan nan nan nan nan nan nan nan nan nan nan nan nan nan nan nan nan nan 28 27 25 23 23 23 23 25 24 26 28
nan nan nan nan nan nan nan nan nan nan nan nan nan nan nan nan nan nan nan nan nan nan nan nan nan nan nan nan nan nan nan nan 26 25 26 25 25 26 26 28 35 35
nan nan nan nan nan nan nan nan nan nan nan nan nan nan nan nan nan nan nan nan nan nan nan nan nan nan nan nan nan nan nan nan nan nan nan 29 nan nan nan nan 37 42
nan nan nan nan nan nan nan nan nan nan nan nan nan nan nan nan nan nan nan nan nan nan nan nan nan nan nan nan nan nan nan nan nan nan nan nan nan nan nan nan nan nan
Wind_Direction
279 266 260 246 237 261 278 277 268 264 248 251 256 265 274 274 276 272 265 260 255 255 256 258 263 268 272 273 274 277 275 279 280 280 281 285 288 294 288 288 275 264
279 277 266 249 245 267 275 270 263 252 243 245 253 261 267 270 275 270 264 261 261 258 258 262 267 272 277 274 271 272 275 276 278 278 282 287 285 288 286 287 280 260
282 283 273 259 261 271 274 273 259 244 239 243 253 259 266 271 273 270 264 265 261 259 260 263 267 270 269 270 270 269 272 274 273 273 277 280 281 283 282 281 280 269
286 287 284 272 264 270 273 271 262 243 243 248 255 260 262 267 270 268 268 264 260 261 262 263 266 267 267 267 269 270 273 274 275 277 278 275 274 276 277 275 272 271
288 284 279 272 257 265 273 274 259 249 249 253 255 258 264 266 267 268 268 266 264 nan nan 264 263 259 260 268 271 271 274 271 275 277 272 269 269 271 271 270 270 266
283 282 279 268 248 255 276 268 253 250 250 255 256 257 262 263 260 265 266 267 264 nan nan nan 263 263 nan 269 271 nan nan nan nan nan nan 271 266 261 263 269 267 263
283 282 278 267 252 260 269 260 250 251 245 248 252 252 257 259 259 263 264 262 nan nan nan nan 264 267 nan nan nan nan nan nan nan nan nan nan 267 266 261 261 265 261
283 275 274 263 252 252 262 262 251 251 249 249 249 247 252 254 259 258 256 254 nan nan nan nan 267 nan nan nan nan nan nan nan nan nan nan nan 271 nan nan nan 262 262
280 277 274 269 252 252 272 277 258 252 251 249 248 245 248 248 252 253 253 253 nan nan nan nan nan nan nan nan nan nan nan nan nan nan nan nan nan nan nan nan nan 265
288 284 279 271 262 260 282 281 262 251 249 249 245 246 250 244 246 248 253 255 nan nan nan nan nan nan nan nan nan nan nan nan nan nan nan nan nan nan nan 266 nan 268
298 288 278 275 266 267 278 273 258 249 250 252 243 244 249 241 239 nan nan nan nan nan nan nan nan nan nan nan nan nan nan nan nan nan nan nan nan nan nan 270 nan 269
270 265 265 270 270 267 276 271 257 251 249 246 243 244 245 237 nan nan nan nan nan nan nan nan nan nan nan nan nan nan nan nan nan nan nan nan nan nan nan nan nan nan
277 280 276 271 264 265 269 266 259 253 250 246 nan 250 250 nan nan nan nan nan nan nan nan nan nan nan nan nan nan nan nan nan nan nan nan nan nan nan nan nan nan nan
261 264 266 269 266 266 264 262 258 259 254 249 249 nan nan nan nan nan nan nan nan nan nan nan nan nan nan nan nan nan nan nan nan nan nan nan nan nan nan nan nan nan
260 261 260 265 265 265 262 259 260 259 257 256 254 nan nan nan nan nan nan nan nan nan nan nan nan 250 nan nan nan nan nan nan nan nan nan nan nan nan nan nan nan nan
265 261 259 261 261 257 254 255 257 254 251 253 254 nan nan nan nan nan nan nan nan nan nan 248 nan nan nan nan nan nan nan nan nan nan nan nan nan nan nan nan nan nan
263 261 256 254 253 250 250 254 258 254 250 250 nan nan nan nan nan nan nan nan nan 256 250 nan nan nan nan nan nan nan nan 257 nan nan nan nan nan nan nan nan nan nan
262 263 255 250 252 254 252 249 252 253 251 249 248 nan nan nan nan 251 247 248 249 nan nan nan nan nan nan nan nan nan nan 247 265 nan nan nan nan nan nan nan nan nan
252 253 249 245 nan nan nan 249 256 258 254 250 250 251 253 253 255 254 252 nan nan nan nan nan nan nan nan nan nan nan nan nan nan 258 260 nan nan nan nan nan 257 261
nan nan nan nan nan nan nan nan nan nan nan nan nan nan nan nan 253 253 nan nan nan nan nan nan nan nan nan nan nan nan nan nan nan 245 245 246 nan nan nan 251 253 256
nan nan nan nan nan nan nan nan nan nan nan nan nan nan nan nan nan nan nan nan nan nan nan nan nan nan nan nan nan nan nan nan 254 244 242 244 246 251 257 257 258 259
nan nan nan nan nan nan nan nan nan nan nan nan nan nan nan nan nan nan nan nan nan nan nan nan nan nan nan nan nan nan nan nan 248 243 240 243 250 258 261 262 261 263
nan nan nan nan nan nan nan nan nan nan nan nan nan nan nan nan nan nan nan nan nan nan nan nan nan nan nan nan nan nan nan 239 238 237 241 250 257 258 260 262 259 253
nan nan nan nan nan nan nan nan nan nan nan nan nan nan nan nan nan nan nan nan nan nan nan nan nan nan nan nan nan nan nan nan 234 238 243 248 253 258 258 259 258 252
nan nan nan nan nan nan nan nan nan nan nan nan nan nan nan nan nan nan nan nan nan nan nan nan nan nan nan nan nan nan nan nan nan nan nan 252 nan nan nan nan 270 263
nan nan nan nan nan nan nan nan nan nan nan nan nan nan nan nan nan nan nan nan nan nan nan nan nan nan nan nan nan nan nan nan nan nan nan nan nan nan nan nan nan nan